Mobridge, SD

1:41 AM CDT on October 23, 2017 (GMT -0500)
Mobridge Municipal

Weather History for KMBG - January, 2008

Change the Weather History Date:

Wednesday, January 2, 2008

  Actual Average Record
Temperature  
Mean Temperature 14 °F 16 °F  
Max Temperature 28 °F 26 °F 55 °F (1963)
Min Temperature 0 °F 6 °F -33 °F (1928)
Degree Days  
Heating Degree Days 51 49  
Month to date heating degree days 98  
Since 1 July heating degree days 3314  
Cooling Degree Days 0 0  
Month to date cooling degree days 0  
Year to date cooling degree days 0  
Moisture  
Dew Point 6 °F    
Average Humidity 71    
Maximum Humidity 83    
Minimum Humidity 54    
Precipitation  
Precipitation 0.00 in 0.01 in 0.28 in (1943)
Month to date precipitation 0.02  
Year to date precipitation 0.02  
Snow  
Snow 0.00 in - - ()
Month to date snowfall  
Since 1 July snowfall  
Snow Depth -    
Sea Level Pressure  
Sea Level Pressure 30.50 in    
Wind  
Wind Speed 7 mph (SSE)    
Max Wind Speed 23 mph    
Max Gust Speed 29 mph    
Visibility 10 miles    
Events      
T = Trace of Precipitation, MM = Missing Value Source: NWS Daily Summary

Daily Weather History Graph

Daily Weather History Graph

Search for Another Location

Airport or City:

Trip Planner

Search our weather history database for the weather conditions in past years. The results will help you decide how hot, cold, wet, or windy it might be!

Date:

Astronomy

Jan. 02, 2008 Rise Set
Actual Time 8:21 AM CST 5:09 PM CST
Civil Twilight 7:47 AM CST 5:43 PM CST
Nautical Twilight 7:10 AM CST 6:20 PM CST
Astronomical Twilight 6:34 AM CST 6:56 PM CST
Moon 3:09 AM CST (1/2) 12:50 PM CST (1/2)
Length of Visible Light 9h 55m
Length of Day
8h 47m
Waning Crescent, 28% of the Moon is Illuminated
Jan 2
Waning Crescent
Jan 8
New
Jan 15
First Quarter
Jan 22
Full
Jan 29
Last Quarter

Hourly Weather History & Observations

Time (CST) Temp. Windchill Dew Point Humidity Pressure Visibility Wind Dir Wind Speed Gust Speed Precip Events Conditions
12:55 AM 6.1 °F - -0.0 °F 76% 30.74 in 10.0 mi Calm Calm - N/A   Overcast
1:55 AM 1.0 °F - -4.0 °F 79% 30.74 in 10.0 mi Calm Calm - N/A   Partly Cloudy
2:55 AM 1.0 °F - -4.0 °F 79% 30.74 in 10.0 mi Calm Calm - N/A   Clear
3:55 AM 3.0 °F -8.0 °F -2.9 °F 76% 30.73 in 10.0 mi ESE 5.8 mph - N/A   Clear
4:55 AM 1.0 °F -6.7 °F -4.0 °F 79% 30.73 in 10.0 mi ESE 3.5 mph - N/A   Clear
5:55 AM 1.9 °F - -4.0 °F 76% 30.74 in 10.0 mi Calm Calm - N/A   Clear
6:55 AM -0.9 °F - -5.1 °F 83% 30.73 in 10.0 mi Calm Calm - N/A   Clear
7:55 AM 1.0 °F -10.3 °F -4.0 °F 79% 30.73 in 10.0 mi ESE 5.8 mph - N/A   Clear
8:55 AM 5.0 °F -5.6 °F -0.0 °F 80% 30.71 in 10.0 mi SSE 5.8 mph - N/A   Clear
9:55 AM 7.0 °F -3.3 °F 1.9 °F 80% 30.70 in 10.0 mi ESE 5.8 mph - N/A   Clear
10:55 AM 12.0 °F -2.0 °F 6.1 °F 77% 30.66 in 10.0 mi SSE 11.5 mph - N/A   Clear
11:55 AM 17.1 °F 3.6 °F 9.0 °F 71% 30.62 in 10.0 mi SSE 12.7 mph - N/A   Clear
12:55 PM 21.9 °F 9.2 °F 12.0 °F 66% 30.55 in 10.0 mi SSE 13.8 mph - N/A   Clear
1:55 PM 26.1 °F 15.0 °F 14.0 °F 60% 30.50 in 10.0 mi SSE 12.7 mph - N/A   Clear
2:55 PM 28.9 °F 17.3 °F 14.0 °F 54% 30.43 in 10.0 mi SSE 16.1 mph - N/A   Clear
3:55 PM 27.0 °F 13.5 °F 12.9 °F 56% 30.38 in 10.0 mi SSE 19.6 mph - N/A   Clear
4:55 PM 25.0 °F 10.6 °F 12.9 °F 60% 30.34 in 10.0 mi SSE 20.7 mph - N/A   Clear
5:55 PM 24.1 °F 9.4 °F 14.0 °F 65% 30.30 in 10.0 mi SSE 20.7 mph - N/A   Clear
6:55 PM 24.1 °F 9.0 °F 14.0 °F 65% 30.25 in 10.0 mi SSE 21.9 mph 28.8 mph N/A   Clear
7:55 PM 24.1 °F 8.7 °F 14.0 °F 65% 30.21 in 10.0 mi SSE 23.0 mph - N/A   Clear
8:55 PM 23.0 °F 7.6 °F 14.0 °F 68% 30.16 in 10.0 mi South 21.9 mph - N/A   Clear
9:55 PM 21.9 °F 6.2 °F 12.9 °F 68% 30.11 in 10.0 mi South 21.9 mph 28.8 mph N/A   Clear
10:55 PM 21.0 °F 7.1 °F 12.9 °F 71% 30.08 in 10.0 mi South 16.1 mph - N/A   Clear
11:55 PM 19.9 °F 6.7 °F 12.9 °F 74% 30.04 in 10.0 mi SSE 13.8 mph - N/A   Clear